Regional Weather Roundup
Issued by NWS State College, PA

Home | Current Version | Previous Version | Graphics & Text | Print | Product List | Glossary On
Versions: 1 2 3 4 5 6 7 8 9 10 11 12 13 14 15 16 17 18 19 20 21 22 23 24 25 26 27 28 29 30 31 32 33 34 35 36 37 38 39 40 41 42 43 44 45 46 47 48 49 50
000
ASUS41 KCTP 011803
RWRCTP

REGIONAL WEATHER ROUNDUP
NATIONAL WEATHER SERVICE STATE COLLEGE PA
200 PM EDT WED OCT 01 2014

Note: "fair" indicates few or no clouds below 12,000 feet with no
significant weather and/or obstructions to visibility.

* = STATION THAT DOES NOT REPORT PRECIPITATION /E.G. RAIN...SNOW...ETC/
    THUNDER OR FOG.

PAZ002>004-007>009-013>016-020>023-029>032-011900-
WESTERN PENNSYLVANIA

CITY           SKY/WX    TMP DP  RH WIND       PRES   REMARKS
ERIE           SUNNY     68  58  70 N9        30.04S
MEADVILLE      MOSUNNY   67  56  67 VRB5      30.04F
FRANKLIN*      SUNNY     66  55  68 E8        30.05F
NEW CASTLE       N/A     62  57  83 CALM      30.06F
BEAVER COUNTY  CLOUDY    63  55  77 NE3       30.05F
BUTLER*        MOSUNNY   61  54  77 CALM      30.06F
PITTSBURGH INT CLOUDY    61  56  83 N5        30.04F
PITTSBURGH     CLOUDY    63  55  75 VRB5      30.03F FOG
INDIANA*       SUNNY     72  54  53 VRB6G14   30.06F
LATROBE        PTSUNNY   72  57  60 SW6       30.03F
WASHINGTON CO* CLOUDY    61  55  82 CALM      30.06S
$$

PAZ004>006-010>012-017>019-024>028-033>037-041-042-045-046-049>053-011900-
CENTRAL PENNSYLVANIA

CITY           SKY/WX    TMP DP  RH WIND       PRES   REMARKS
BRADFORD       MOSUNNY   65  53  65 VRB5      30.06F
DUBOIS         SUNNY     67  56  67 S8        30.05F
CLEARFIELD     MOSUNNY   66  57  72 E3        30.06F
JOHNSTOWN      MOSUNNY   66  51  58 CALM      30.05F
ALTOONA        PTSUNNY   66  59  78 SE7       30.06F
STATE COLLEGE  PTSUNNY   64  57  77 CALM      30.06F
WILLIAMSPORT   CLOUDY    68  57  68 VRB5      30.03F
SELINSGROVE    SUNNY     67  58  72 CALM      30.05F
FT INDIANTOWN  PTSUNNY   72  63  73 VRB2      30.04F
CAPITAL CITY   PTSUNNY   70  58  65 CALM      30.04F
HARRISBURG     PTSUNNY   68  60  75 SW5       30.04F
YORK           CLOUDY    67  58  72 E6        30.05F
$$

PAZ038>040-043-044-047-048-054-055-060>062-067>071-011900-
EASTERN PENNSYLVANIA

CITY           SKY/WX    TMP DP  RH WIND       PRES   REMARKS
SCRANTON       PTSUNNY   72  53  51 SE7       30.03F
MOUNT POCONO   CLOUDY    62  54  74 NE10      30.07F
ALLENTOWN      PTSUNNY   72  55  55 E9        30.03F
QUAKERTOWN*    MOCLDY    70  57  64 NE3       30.04F
READING        PTSUNNY   73  56  54 CALM      30.02F
LANCASTER      PTSUNNY   70  57  63 NW6       30.03F
COATESVILLE    MOCLDY    68  57  68 N7        30.04F
POTTSTOWN      PTSUNNY   70  55  59 N7        30.03F
BLUE BELL      PTSUNNY   72  57  60 NE5       30.01F
DOYLESTOWN     CLOUDY    68  57  68 NE7       30.03F
WILLOW GROVE   NOT AVBL
NORTH PHILA    CLOUDY    71  55  56 NE12      30.03F
PHILADELPHIA   PTSUNNY   72  57  59 NE7       30.01F
$$



USA.gov is the U.S. government's official web portal to all federal, state and local government web resources and services.